GW3838 Weather Reports


Display with metric or nautical units.
time (UTC)temp
F
wind
direction
speed
MPH
gust
MPH
rain 1hr
in
rain 24hr
in
rain mn
in
humidity
%
barometer
mb
20240224020823 60 310 2.0 3.0 0.00 0.07 0.07 46 1013.4
20240224020322 60 5 3.0 6.0 0.00 0.07 0.07 47 1013.6
20240224015820 60 0 4.0 6.0 0.00 0.07 0.07 47 1013.2
20240224015318 61 325 3.0 9.0 0.00 0.07 0.07 46 1013.2
20240224014817 61 343 4.0 5.0 0.00 0.07 0.07 46 1013.4
20240224014308 61 342 5.0 8.0 0.00 0.07 0.07 47 1013.3
20240224013807 62 324 7.0 10.0 0.00 0.07 0.07 46 1013.1
20240224013307 62 318 5.0 11.0 0.00 0.07 0.07 46 1013.1
20240224012806 62 355 4.0 8.0 0.00 0.07 0.07 48 1013.0
20240224012306 62 2 8.0 14.0 0.00 0.07 0.07 48 1013.0
20240224011804 62 355 7.0 9.0 0.00 0.07 0.07 50 1013.0
20240224011302 62 263 6.0 8.0 0.00 0.07 0.07 50 1012.9
20240224010801 62 345 5.0 6.0 0.00 0.07 0.07 51 1012.6
20240224010300 62 337 4.0 9.0 0.00 0.07 0.07 51 1012.5
20240224005800 62 352 4.0 8.0 0.00 0.07 0.07 51 1012.5
20240224005258 63 3 5.0 6.0 0.00 0.07 0.07 50 1012.3
20240224004757 63 305 5.0 7.0 0.00 0.07 0.07 50 1012.2
20240224004255 63 349 5.0 7.0 0.00 0.07 0.07 51 1012.2
20240224003753 63 348 5.0 8.0 0.00 0.07 0.07 51 1012.3
20240224003253 63 344 4.0 8.0 0.00 0.07 0.07 51 1012.6
20240224002753 63 268 7.0 9.0 0.00 0.07 0.07 51 1012.3
20240224002251 64 0 5.0 9.0 0.00 0.07 0.07 51 1012.0
20240224001750 64 314 4.0 9.0 0.00 0.07 0.07 51 1012.2
20240224001248 64 313 5.0 8.0 0.00 0.07 0.07 51 1011.8
20240224000747 64 355 4.0 7.0 0.00 0.07 0.07 51 1011.5
20240224000247 64 342 4.0 8.0 0.00 0.07 0.07 50 1011.8
20240223235744 65 0 5.0 8.0 0.00 0.07 0.07 51 1011.5
20240223235243 65 0 5.0 13.0 0.00 0.07 0.07 50 1011.4
20240223234742 65 350 10.0 13.0 0.00 0.07 0.07 50 1011.3
20240223234240 66 359 7.0 11.0 0.00 0.07 0.07 52 1011.4
20240223233739 66 0 9.0 10.0 0.00 0.07 0.07 53 1011.1
20240223233239 66 358 9.0 10.0 0.00 0.07 0.07 53 1010.9
20240223232738 67 327 5.0 7.0 0.00 0.07 0.07 53 1010.7
20240223232236 67 275 6.0 10.0 0.00 0.07 0.07 51 1010.7
20240223231736 67 354 5.0 10.0 0.00 0.07 0.07 51 1010.8
20240223231234 68 349 7.0 9.0 0.00 0.07 0.07 50 1010.4
20240223230734 68 352 3.0 6.0 0.00 0.07 0.07 49 1010.2
20240223230232 68 4 3.0 13.0 0.00 0.07 0.07 51 1010.3
20240223225732 68 274 3.0 7.0 0.00 0.07 0.07 50 1010.3
20240223225231 68 39 3.0 16.0 0.00 0.07 0.07 50 1010.2
20240223224730 69 325 5.0 13.0 0.00 0.07 0.07 50 1010.0
20240223224228 69 312 2.0 7.0 0.00 0.07 0.07 49 1010.0
20240223223727 70 348 7.0 13.0 0.00 0.07 0.07 48 1010.2
20240223223225 70 272 5.0 10.0 0.00 0.07 0.07 47 1009.8
20240223222723 70 299 8.0 11.0 0.00 0.07 0.07 46 1009.7
20240223222222 70 295 7.0 9.0 0.00 0.07 0.07 46 1009.8
20240223221721 70 246 4.0 11.0 0.00 0.07 0.07 46 1009.6
20240223221220 70 349 5.0 14.0 0.00 0.07 0.07 46 1009.6
20240223220718 71 330 6.0 15.0 0.00 0.07 0.07 45 1009.6
20240223220218 70 355 8.0 13.0 0.00 0.07 0.07 46 1009.7
20240223215718 71 336 6.0 15.0 0.00 0.07 0.07 46 1009.7
20240223215216 71 354 6.0 10.0 0.00 0.07 0.07 46 1009.5
20240223214714 71 299 4.0 11.0 0.00 0.07 0.07 47 1009.4
20240223214213 71 357 11.0 17.0 0.00 0.07 0.07 48 1009.3
20240223213712 71 353 5.0 11.0 0.00 0.07 0.07 49 1009.3
20240223213209 71 344 8.0 15.0 0.00 0.07 0.07 46 1009.5
20240223212709 72 247 3.0 14.0 0.00 0.07 0.07 47 1009.4
20240223212208 72 291 4.0 7.0 0.00 0.07 0.07 45 1009.5
20240223211707 71 234 3.0 9.0 0.00 0.07 0.07 45 1009.2
20240223211203 71 276 7.0 10.0 0.00 0.07 0.07 46 1009.3
20240223210701 70 47 5.0 16.0 0.00 0.07 0.07 48 1009.4
20240223210201 70 240 1.0 5.0 0.00 0.07 0.07 49 1009.2
20240223205700 70 285 9.0 13.0 0.00 0.07 0.07 48 1009.3
20240223205158 71 293 6.0 10.0 0.00 0.07 0.07 50 1009.3
20240223204657 71 26 7.0 16.0 0.00 0.07 0.07 49 1009.2
20240223204154 71 270 3.0 11.0 0.00 0.07 0.07 49 1009.2
20240223203652 71 9 7.0 16.0 0.00 0.07 0.07 48 1009.4
20240223203151 70 347 11.0 15.0 0.00 0.07 0.07 49 1009.4
20240223202649 70 8 11.0 23.0 0.00 0.07 0.07 50 1009.3
20240223202149 71 303 13.0 16.0 0.00 0.07 0.07 46 1009.2
20240223201648 72 351 5.0 10.0 0.00 0.07 0.07 46 1009.2
20240223201144 72 304 3.0 11.0 0.00 0.07 0.07 47 1009.2
20240223200642 71 314 4.0 13.0 0.00 0.07 0.07 48 1009.5
20240223200141 71 354 10.0 15.0 0.00 0.07 0.07 49 1009.3
20240223195639 71 288 4.0 13.0 0.00 0.07 0.07 50 1009.3
20240223195138 72 350 9.0 20.0 0.00 0.07 0.07 48 1009.3
20240223194637 71 16 8.0 16.0 0.00 0.07 0.07 48 1009.1
20240223194137 74 332 9.0 13.0 0.00 0.07 0.07 49 1009.2
20240223193637 73 339 4.0 14.0 0.00 0.07 0.07 50 1009.2
20240223193136 72 276 4.0 13.0 0.00 0.07 0.07 50 1009.4
20240223192634 73 333 6.0 15.0 0.00 0.07 0.07 50 1009.4
20240223192134 72 335 5.0 10.0 0.00 0.07 0.07 51 1009.2
20240223191633 71 266 7.0 15.0 0.00 0.07 0.07 53 1009.1
20240223191130 71 309 11.0 18.0 0.00 0.07 0.07 54 1009.2
20240223190629 71 292 7.0 9.0 0.00 0.07 0.07 55 1009.2
20240223190127 71 298 4.0 8.0 0.00 0.07 0.07 57 1009.3
20240223185625 70 254 8.0 14.0 0.00 0.07 0.07 57 1009.0
20240223185122 72 260 5.0 8.0 0.00 0.07 0.07 56 1009.1
20240223184620 70 286 4.0 13.0 0.00 0.07 0.07 62 1009.1
20240223184117 70 318 5.0 13.0 0.00 0.07 0.07 60 1009.4
20240223183616 69 213 3.0 13.0 0.00 0.07 0.07 66 1009.3
20240223183115 70 311 3.0 7.0 0.00 0.07 0.07 67 1009.4
20240223182614 69 254 2.0 9.0 0.00 0.07 0.07 68 1009.5
20240223182113 69 312 2.0 10.0 0.00 0.07 0.07 70 1009.4
20240223181612 69 293 6.0 13.0 0.00 0.07 0.07 71 1009.4
20240223181109 70 251 6.0 9.0 0.00 0.07 0.07 68 1009.3
20240223180607 69 298 6.0 8.0 0.00 0.07 0.07 71 1009.5
20240223180106 70 284 5.0 11.0 0.00 0.07 0.07 69 1009.8
20240223175603 68 250 3.0 10.0 0.00 0.07 0.07 72 1009.8
20240223175102 68 282 9.0 15.0 0.00 0.07 0.07 72 1009.7
20240223174601 67 344 7.0 22.0 0.00 0.07 0.07 74 1009.8
20240223174059 68 273 4.0 16.0 0.00 0.07 0.07 76 1009.8
20240223173558 67 319 3.0 10.0 0.00 0.07 0.07 76 1009.8
20240223173057 67 276 8.0 10.0 0.00 0.07 0.07 78 1010.0
20240223172556 65 245 7.0 11.0 0.00 0.07 0.07 82 1010.3
20240223172055 65 314 2.0 7.0 0.00 0.07 0.07 83 1010.3
20240223171553 66 256 3.0 14.0 0.00 0.07 0.07 84 1010.6
20240223171051 65 295 6.0 11.0 0.00 0.07 0.07 84 1010.5
20240223170549 65 226 7.0 9.0 0.00 0.07 0.07 85 1010.4
20240223170047 64 250 4.0 8.0 0.00 0.07 0.07 86 1010.7
20240223165547 64 265 5.0 8.0 0.00 0.07 0.07 87 1010.6
20240223165045 63 274 5.0 9.0 0.00 0.07 0.07 90 1010.5
20240223164544 63 272 4.0 8.0 0.00 0.07 0.07 91 1010.7
20240223164043 63 276 7.0 11.0 0.00 0.07 0.07 90 1010.7
20240223163542 63 294 6.0 9.0 0.00 0.07 0.07 91 1011.0
20240223163041 63 209 4.0 8.0 0.00 0.07 0.07 91 1010.8
20240223162540 63 249 5.0 7.0 0.00 0.07 0.07 92 1010.5
20240223162038 62 216 9.0 15.0 0.00 0.07 0.07 92 1010.8
20240223161538 62 208 10.0 11.0 0.00 0.07 0.07 92 1010.8
20240223161036 62 247 5.0 9.0 0.00 0.07 0.07 92 1010.8
20240223160535 62 238 5.0 11.0 0.00 0.07 0.07 92 1010.5
20240223160034 62 245 9.0 14.0 0.00 0.07 0.07 92 1010.6
20240223155533 61 275 6.0 10.0 0.00 0.07 0.07 93 1010.8
20240223155032 61 225 8.0 14.0 0.00 0.07 0.07 93 1010.6
20240223154530 61 226 9.0 15.0 0.00 0.07 0.07 93 1010.6
20240223154027 61 210 7.0 13.0 0.00 0.07 0.07 93 1010.7
20240223153527 61 228 6.0 15.0 0.00 0.07 0.07 92 1011.0
20240223153025 61 233 13.0 17.0 0.00 0.07 0.07 92 1011.0
20240223152524 61 264 5.0 8.0 0.00 0.07 0.07 92 1011.0
20240223152024 61 255 7.0 10.0 0.00 0.07 0.07 92 1011.1
20240223151522 61 225 11.0 14.0 0.00 0.07 0.07 92 1011.2
20240223151021 61 247 5.0 11.0 0.00 0.07 0.07 92 1011.1
20240223150521 61 225 8.0 14.0 0.00 0.07 0.07 92 1011.0
20240223150020 60 232 5.0 8.0 0.00 0.07 0.07 92 1011.1
20240223145520 60 258 10.0 15.0 0.00 0.07 0.07 92 1011.3
20240223145018 60 235 11.0 13.0 0.00 0.07 0.07 92 1011.3
20240223144516 60 210 7.0 13.0 0.00 0.07 0.07 92 1011.3
20240223144014 60 229 5.0 9.0 0.00 0.07 0.07 92 1011.5
20240223143514 60 189 9.0 9.0 0.00 0.07 0.07 92 1011.4
20240223143013 60 231 5.0 14.0 0.00 0.07 0.07 92 1011.5
20240223142512 60 234 11.0 15.0 0.00 0.07 0.07 92 1011.7
20240223142011 59 208 11.0 16.0 0.00 0.07 0.07 92 1011.7
20240223141510 59 234 9.0 14.0 0.00 0.07 0.07 92 1011.6
20240223141009 59 227 10.0 15.0 0.00 0.07 0.07 92 1011.6
20240223140508 59 230 7.0 13.0 0.00 0.07 0.07 92 1011.9
20240223140008 59 255 6.0 15.0 0.00 0.07 0.07 93 1011.8
20240223135507 58 211 8.0 9.0 0.00 0.07 0.07 94 1011.7
20240223135005 58 232 7.0 9.0 0.00 0.07 0.07 94 1011.8
20240223134503 58 201 5.0 15.0 0.00 0.07 0.07 94 1012.0
20240223134001 58 217 5.0 10.0 0.00 0.07 0.07 94 1012.1
20240223133500 58 210 5.0 13.0 0.00 0.07 0.07 94 1011.9
20240223132959 57 245 7.0 10.0 0.00 0.07 0.07 94 1011.8
20240223132459 57 203 8.0 10.0 0.00 0.07 0.07 94 1012.0
20240223131957 57 232 6.0 11.0 0.00 0.07 0.07 94 1012.1
20240223131456 57 256 4.0 13.0 0.00 0.07 0.07 94 1011.9
20240223130954 57 248 7.0 9.0 0.00 0.07 0.07 94 1012.1
20240223130452 57 236 7.0 11.0 0.00 0.07 0.07 94 1012.2
20240223125950 57 215 6.0 7.0 0.00 0.07 0.07 94 1012.1
20240223125449 57 208 4.0 6.0 0.00 0.07 0.07 94 1012.2
20240223124945 57 247 5.0 8.0 0.00 0.07 0.07 94 1012.2
20240223124445 57 236 4.0 6.0 0.00 0.07 0.07 94 1012.0
20240223123944 57 229 7.0 11.0 0.00 0.07 0.07 94 1012.2
20240223123442 56 237 6.0 9.0 0.00 0.07 0.07 94 1012.2
20240223122939 56 177 6.0 8.0 0.00 0.07 0.07 94 1012.3
20240223122437 56 220 4.0 8.0 0.00 0.07 0.07 94 1012.0
20240223121937 56 254 7.0 11.0 0.00 0.07 0.07 94 1012.0
20240223121436 56 220 7.0 9.0 0.07 0.07 0.07 94 1012.1
20240223120935 56 234 9.0 15.0 0.14 0.07 0.07 94 1012.1
20240223120436 56 241 5.0 11.0 0.18 0.05 0.05 93 1011.9
20240223115934 57 190 10.0 14.0 0.11 0.04 0.04 92 1012.2
20240223115434 57 233 5.0 7.0 0.00 0.02 0.02 90 1012.4
20240223114933 57 254 6.0 9.0 0.00 0.02 0.02 90 1012.2
20240223114431 57 221 9.0 16.0 0.00 0.02 0.02 90 1011.9
20240223113927 57 252 11.0 13.0 0.00 0.02 0.02 90 1012.0
20240223113425 57 246 8.0 10.0 0.04 0.02 0.02 91 1012.1
20240223112924 56 238 8.0 10.0 0.04 0.02 0.02 91 1012.2
20240223112422 56 238 8.0 11.0 0.00 0.02 0.02 90 1012.2
20240223111920 56 226 4.0 9.0 0.00 0.02 0.02 91 1012.2
20240223111419 56 221 4.0 10.0 0.00 0.02 0.02 91 1012.2
20240223110917 56 231 6.0 20.0 0.00 0.02 0.02 90 1012.1
20240223110417 56 233 6.0 11.0 0.07 0.02 0.02 90 1012.4
20240223105916 56 197 6.0 10.0 0.11 0.02 0.02 90 1012.4
20240223105416 57 216 9.0 13.0 0.04 0.00 0.00 89 1012.4
20240223104915 57 232 5.0 10.0 0.00 0.00 0.00 86 1012.3
20240223104413 57 202 6.0 10.0 0.00 0.00 0.00 83 1012.4
20240223103911 57 214 12.0 15.0 0.00 0.00 0.00 83 1012.5
20240223103409 57 188 6.0 8.0 0.00 0.00 0.00 83 1012.6
20240223102907 57 231 8.0 11.0 0.00 0.00 0.00 83 1012.6
20240223102406 57 247 3.0 7.0 0.00 0.00 0.00 83 1012.7
20240223101905 57 239 10.0 10.0 0.00 0.00 0.00 83 1012.8
20240223101405 57 219 5.0 9.0 0.00 0.00 0.00 82 1012.6
20240223100904 57 253 6.0 11.0 0.00 0.00 0.00 82 1012.7
20240223100402 57 236 7.0 13.0 0.00 0.00 0.00 82 1012.8
20240223095900 57 246 8.0 10.0 0.00 0.00 0.00 82 1013.0
20240223095359 57 243 3.0 8.0 0.00 0.00 0.00 81 1013.1
20240223094857 57 254 4.0 7.0 0.00 0.00 0.00 81 1013.3
20240223094355 57 229 8.0 10.0 0.00 0.00 0.00 81 1013.0
20240223093852 57 251 6.0 10.0 0.00 0.00 0.00 81 1013.1
20240223093350 57 255 4.0 9.0 0.00 0.00 0.00 81 1013.6
20240223092849 57 243 6.0 8.0 0.00 0.00 0.00 80 1013.3
20240223092348 57 243 6.0 10.0 0.00 0.00 0.00 80 1013.5
20240223091847 57 261 6.0 10.0 0.00 0.00 0.00 80 1013.5
20240223091346 57 259 7.0 10.0 0.00 0.00 0.00 80 1013.6
20240223090844 57 268 4.0 11.0 0.00 0.00 0.00 80 1013.6
20240223090344 57 247 6.0 10.0 0.00 0.00 0.00 80 1013.6
20240223085843 57 206 6.0 13.0 0.00 0.00 0.00 80 1013.7
20240223085342 57 223 9.0 11.0 0.00 0.00 0.00 79 1013.4
20240223084841 57 269 8.0 16.0 0.00 0.00 0.00 79 1013.6
20240223084339 57 223 4.0 11.0 0.00 0.00 0.00 79 1013.4
20240223083838 57 265 8.0 14.0 0.00 0.00 0.00 79 1013.6
20240223083335 57 232 9.0 10.0 0.00 0.00 0.00 79 1013.7
20240223082834 57 228 9.0 10.0 0.00 0.00 0.00 79 1013.8
20240223082333 57 232 5.0 9.0 0.00 0.00 0.00 78 1014.0
20240223081833 57 262 8.0 10.0 0.00 0.00 0.00 78 1014.0
20240223081332 57 256 10.0 13.0 0.00 0.00 0.00 78 1014.3
20240223080831 57 211 6.0 11.0 0.00 0.00 0.00 78 1013.9
20240223080330 57 215 7.0 13.0 0.00 0.00 0.00 78 1014.2
20240223075829 57 225 8.0 10.0 0.00 0.00 0.00 78 1013.8
20240223075328 57 232 8.0 10.0 0.00 0.00 0.00 77 1014.4
20240223074826 57 247 12.0 15.0 0.00 0.00 0.00 77 1014.3
20240223074324 57 225 5.0 7.0 0.00 0.00 0.00 77 1014.1
20240223073823 57 210 7.0 11.0 0.00 0.00 0.00 77 1014.6
20240223073323 57 197 7.0 13.0 0.00 0.00 0.00 77 1014.5
20240223072822 57 194 7.0 10.0 0.00 0.00 0.00 76 1014.5
20240223072321 57 219 5.0 9.0 0.00 0.00 0.00 76 1014.4
20240223071819 57 211 6.0 11.0 0.00 0.00 0.00 76 1014.6
20240223071318 57 238 6.0 13.0 0.00 0.00 0.00 76 1014.5
20240223070818 57 194 8.0 14.0 0.00 0.00 0.00 76 1014.5
20240223070317 57 219 6.0 14.0 0.00 0.00 0.00 75 1014.5
20240223065817 57 214 7.0 13.0 0.00 0.00 0.00 75 1014.7
20240223065315 57 236 7.0 13.0 0.00 0.00 0.00 75 1014.7
20240223064814 57 227 7.0 13.0 0.00 0.00 0.00 74 1015.0
20240223064313 57 181 11.0 16.0 0.00 0.00 0.00 74 1015.0
20240223063813 57 207 9.0 13.0 0.00 0.00 0.00 73 1015.1
20240223063311 57 204 9.0 16.0 0.00 0.00 0.00 72 1015.2
20240223062810 57 240 7.0 16.0 0.00 0.00 0.00 72 1015.7
20240223062309 58 209 12.0 17.0 0.00 0.00 0.00 71 1015.5
20240223061807 57 230 8.0 15.0 0.00 0.00 0.00 70 1015.7
20240223061306 57 219 10.0 13.0 0.00 0.00 0.00 69 1015.7
20240223060805 57 218 6.0 11.0 0.00 0.00 0.00 68 1015.8
20240223060302 57 232 7.0 9.0 0.00 0.00 0.00 68 1015.9
20240223055801 58 213 4.0 8.0 0.00 0.00 0.00 67 1016.0
20240223055259 58 227 7.0 10.0 0.00 0.00 0.00 66 1016.3
20240223054758 58 249 9.0 11.0 0.00 0.00 0.00 66 1016.3
20240223054258 58 247 5.0 8.0 0.00 0.00 0.00 65 1016.3
20240223053757 58 238 8.0 13.0 0.00 0.00 0.00 64 1016.1
20240223053256 58 187 9.0 14.0 0.00 0.00 0.00 63 1016.3
20240223052755 58 232 7.0 13.0 0.00 0.00 0.00 61 1016.2
20240223052254 58 217 11.0 14.0 0.00 0.00 0.00 61 1016.3
20240223051753 58 222 7.0 11.0 0.00 0.00 0.00 59 1016.0
20240223051251 58 228 8.0 10.0 0.00 0.00 0.00 58 1016.2
20240223050750 59 210 6.0 10.0 0.00 0.00 0.00 57 1016.4
20240223050250 59 238 9.0 13.0 0.00 0.00 0.00 55 1016.4
20240223045748 59 245 9.0 11.0 0.00 0.00 0.00 54 1016.7
20240223045247 59 232 6.0 10.0 0.00 0.00 0.00 52 1016.6
20240223044746 59 203 6.0 14.0 0.00 0.00 0.00 52 1016.7
20240223044244 59 254 8.0 13.0 0.00 0.00 0.00 51 1016.8
20240223043744 59 196 5.0 10.0 0.00 0.00 0.00 50 1016.4
20240223043243 59 191 4.0 9.0 0.00 0.00 0.00 50 1016.7
20240223042741 59 238 9.0 10.0 0.00 0.00 0.00 49 1016.7
20240223042239 59 239 5.0 8.0 0.00 0.00 0.00 48 1016.7
20240223041739 60 254 4.0 7.0 0.00 0.00 0.00 48 1016.9
20240223041238 60 202 2.0 6.0 0.00 0.00 0.00 47 1017.0
20240223040737 60 206 5.0 9.0 0.00 0.00 0.00 46 1017.2
20240223040235 60 236 7.0 9.0 0.00 0.00 0.00 46 1017.0
20240223035735 60 253 4.0 11.0 0.00 0.00 0.00 45 1017.1
20240223035234 60 214 4.0 7.0 0.00 0.00 0.00 45 1016.9
20240223034734 60 226 5.0 6.0 0.00 0.00 0.00 45 1017.4
20240223034233 61 205 5.0 8.0 0.00 0.00 0.00 45 1017.4
20240223033732 61 201 4.0 6.0 0.00 0.00 0.00 45 1017.6
20240223033230 61 265 6.0 10.0 0.00 0.00 0.00 44 1017.5
20240223032729 61 210 5.0 8.0 0.00 0.00 0.00 44 1017.8
20240223032227 61 207 7.0 11.0 0.00 0.00 0.00 44 1017.8
20240223031727 61 218 4.0 7.0 0.00 0.00 0.00 45 1017.7
20240223031225 61 217 10.0 14.0 0.00 0.00 0.00 44 1017.6
20240223030725 61 222 6.0 11.0 0.00 0.00 0.00 44 1017.7
20240223030223 61 223 5.0 6.0 0.00 0.00 0.00 45 1017.9
20240223025723 61 223 3.0 8.0 0.00 0.00 0.00 45 1017.9
20240223025222 61 218 5.0 8.0 0.00 0.00 0.00 45 1018.0
20240223024722 61 240 6.0 9.0 0.00 0.00 0.00 45 1017.8
20240223024221 61 252 5.0 7.0 0.00 0.00 0.00 45 1017.9
20240223023720 61 212 4.0 7.0 0.00 0.00 0.00 45 1017.8
20240223023218 61 216 4.0 5.0 0.00 0.00 0.00 46 1017.7
20240223022717 61 225 3.0 6.0 0.00 0.00 0.00 46 1017.7
20240223022216 61 226 3.0 3.0 0.00 0.00 0.00 47 1017.8
20240223021715 61 230 4.0 6.0 0.00 0.00 0.00 47 1017.8
20240223021213 61 225 4.0 7.0 0.00 0.00 0.00 46 1017.8